{"data":{"norad_id":56036,"epoch":"2026-09-20T14:30:09.636480Z","epoch_age_seconds":97096,"freshness":"FRESH","line1":"1 56036U 23042BC  26263.60427820  .00000866  00000+0  40996-4 0  9990","line2":"2 56036  43.0053  24.5574 0001770 278.4392  81.6260 15.27575130192847","mean_motion":15.2757513,"eccentricity":0.000177,"inclination_deg":43.0053,"raan_deg":24.5574,"arg_perigee_deg":278.4392,"mean_anomaly_deg":81.626,"bstar":4.0996e-5,"rev_number":19284,"period_min":94.26704924163,"perigee_km":481.84924609025,"apogee_km":484.27811113048,"semimajor_km":6861.2006786104,"source":"CELESTRAK","updated_at":"2026-09-21T09:00:33.359963Z"}}